When you browse on this site, cookies collect data to enhance your experience and personalize the content and advertising you see.
Visit our Privacy Policy to learn more. By continuing to use the site, you agree to this use of cookies and data.
  • In Hungary
  • List of Countries
  • For 7 days
  • Water Temperature
  • Weather Map
  • News
  • Weather Widgets
  • user-avatar
    Login

    Hourly Weather Ipu

    Today, 14 November, Thursday

    Time Temperature Precipitation Wind Pressure Humidity
    00:00 +25°C° 0 mm 2 mps 727 mmHg 80%
    01:00 +25°C° 0 mm 2 mps 727 mmHg 82%
    02:00 +24°C° 0 mm 2 mps 727 mmHg 84%
    03:00 +24°C° 0 mm 2 mps 726 mmHg 85%
    04:00 +24°C° 0 mm 2 mps 727 mmHg 85%
    05:00 +24°C° 0 mm 2 mps 727 mmHg 84%
    06:00 +24°C° 0 mm 2 mps 728 mmHg 84%
    07:00 +27°C° 0 mm 2 mps 728 mmHg 71%
    08:00 +29°C° 0 mm 3 mps 729 mmHg 59%
    09:00 +33°C° 0 mm 3 mps 729 mmHg 47%
    10:00 +35°C° 0 mm 3 mps 728 mmHg 40%
    11:00 +37°C° 0 mm 3 mps 728 mmHg 33%
    12:00 +39°C° 0 mm 3 mps 727 mmHg 27%
    13:00 +40°C° 0 mm 2 mps 726 mmHg 25%
    14:00 +40°C° 0 mm 2 mps 726 mmHg 23%
    15:00 +40°C° 0 mm 2 mps 725 mmHg 22%
    16:00 +38°C° 0 mm 2 mps 725 mmHg 25%
    17:00 +36°C° 0 mm 2 mps 725 mmHg 27%
    18:00 +34°C° 0 mm 1 mps 725 mmHg 30%
    19:00 +32°C° 0 mm 2 mps 726 mmHg 41%
    20:00 +30°C° 0 mm 2 mps 726 mmHg 51%
    21:00 +28°C° 0 mm 3 mps 727 mmHg 61%
    22:00 +27°C° 0 mm 3 mps 727 mmHg 65%
    23:00 +26°C° 0 mm 3 mps 726 mmHg 69%

    Tomorrow, 15 November, Friday

    Time Temperature Precipitation Wind Pressure Humidity
    00:00 +25°C° 0 mm 2 mps 726 mmHg 73%
    01:00 +25°C° 0 mm 2 mps 726 mmHg 77%
    02:00 +24°C° 0 mm 2 mps 726 mmHg 81%
    03:00 +24°C° 0 mm 2 mps 726 mmHg 86%
    04:00 +24°C° 0 mm 2 mps 726 mmHg 85%
    05:00 +24°C° 0 mm 2 mps 727 mmHg 84%
    06:00 +25°C° 0 mm 2 mps 728 mmHg 83%
    07:00 +26°C° 0 mm 2 mps 728 mmHg 74%
    08:00 +28°C° 0 mm 2 mps 728 mmHg 66%
    09:00 +29°C° 0 mm 3 mps 729 mmHg 57%
    10:00 +33°C° 0 mm 3 mps 728 mmHg 49%
    11:00 +35°C° 0 mm 2 mps 728 mmHg 42%
    12:00 +37°C° 0 mm 2 mps 727 mmHg 34%
    13:00 +38°C° 0 mm 2 mps 726 mmHg 32%
    14:00 +38°C° 0 mm 2 mps 725 mmHg 30%
    15:00 +39°C° 0 mm 1 mps 724 mmHg 27%
    16:00 +36°C° 0 mm 1 mps 724 mmHg 31%
    17:00 +34°C° 0 mm 1 mps 724 mmHg 34%
    18:00 +32°C° 0 mm 1 mps 724 mmHg 37%
    19:00 +30°C° 0 mm 2 mps 725 mmHg 47%
    20:00 +29°C° 0 mm 2 mps 725 mmHg 56%
    21:00 +27°C° 0 mm 3 mps 726 mmHg 66%
    22:00 +26°C° 0 mm 3 mps 726 mmHg 70%
    23:00 +26°C° 0 mm 3 mps 726 mmHg 74%

    Day after tomorrow, 16 November, Saturday

    Time Temperature Precipitation Wind Pressure Humidity
    00:00 +25°C° 0 mm 2 mps 725 mmHg 78%
    01:00 +24°C° 0 mm 2 mps 725 mmHg 82%
    02:00 +24°C° 0 mm 2 mps 725 mmHg 85%
    03:00 +23°C° 0 mm 2 mps 725 mmHg 89%
    04:00 +24°C° 0 mm 2 mps 725 mmHg 87%
    05:00 +24°C° 0 mm 2 mps 725 mmHg 84%
    06:00 +25°C° 0 mm 2 mps 726 mmHg 82%
    07:00 +26°C° 0 mm 2 mps 726 mmHg 75%
    08:00 +27°C° 0 mm 2 mps 727 mmHg 68%
    09:00 +29°C° 0 mm 3 mps 727 mmHg 60%
    10:00 +32°C° 0 mm 2 mps 726 mmHg 51%
    11:00 +36°C° 0 mm 2 mps 726 mmHg 41%
    12:00 +39°C° 0 mm 2 mps 726 mmHg 31%
    13:00 +39°C° 0 mm 2 mps 725 mmHg 29%
    14:00 +40°C° 0 mm 2 mps 724 mmHg 27%
    15:00 +40°C° 0 mm 2 mps 723 mmHg 25%
    16:00 +38°C° 0 mm 2 mps 723 mmHg 29%
    17:00 +36°C° 0 mm 2 mps 724 mmHg 33%
    18:00 +34°C° 0 mm 2 mps 724 mmHg 37%
    19:00 +31°C° 0 mm 3 mps 724 mmHg 46%
    20:00 +29°C° 0 mm 3 mps 724 mmHg 56%
    21:00 +27°C° 0 mm 4 mps 725 mmHg 66%
    22:00 +26°C° 0 mm 3 mps 725 mmHg 70%
    23:00 +26°C° 0 mm 3 mps 725 mmHg 74%

    17 November, Sunday

    Time Temperature Precipitation Wind Pressure Humidity
    00:00 +25°C° 0 mm 3 mps 724 mmHg 77%
    01:00 +25°C° 0 mm 3 mps 724 mmHg 81%
    02:00 +24°C° 0 mm 3 mps 724 mmHg 84%
    03:00 +24°C° 0 mm 2 mps 724 mmHg 88%
    04:00 +24°C° 0 mm 2 mps 725 mmHg 86%
    05:00 +25°C° 0 mm 2 mps 725 mmHg 83%
    06:00 +25°C° 0 mm 2 mps 726 mmHg 81%
    07:00 +26°C° 0 mm 3 mps 726 mmHg 74%
    08:00 +28°C° 0 mm 3 mps 727 mmHg 68%
    09:00 +29°C° 0 mm 3 mps 727 mmHg 61%
    10:00 +31°C° 0 mm 3 mps 727 mmHg 52%
    11:00 +35°C° 0 mm 3 mps 726 mmHg 43%
    12:00 +37°C° 0 mm 3 mps 726 mmHg 34%
    13:00 +38°C° 0 mm 3 mps 725 mmHg 31%
    14:00 +39°C° 0 mm 3 mps 724 mmHg 28%
    15:00 +40°C° 0 mm 3 mps 723 mmHg 24%
    16:00 +38°C° 0 mm 3 mps 723 mmHg 28%
    17:00 +36°C° 0 mm 3 mps 724 mmHg 31%
    18:00 +34°C° 0 mm 3 mps 724 mmHg 35%
    19:00 +31°C° 0 mm 3 mps 724 mmHg 44%
    20:00 +29°C° 0 mm 3 mps 725 mmHg 54%
    21:00 +27°C° 0 mm 4 mps 725 mmHg 63%
    22:00 +27°C° 0 mm 3 mps 725 mmHg 68%
    23:00 +26°C° 0 mm 3 mps 725 mmHg 73%

    18 November, Monday

    Time Temperature Precipitation Wind Pressure Humidity
    00:00 +25°C° 0 mm 3 mps 725 mmHg 77%
    01:00 +25°C° 0 mm 3 mps 725 mmHg 80%
    02:00 +24°C° 0 mm 3 mps 724 mmHg 83%
    03:00 +24°C° 0 mm 3 mps 724 mmHg 86%
    04:00 +24°C° 0 mm 3 mps 725 mmHg 86%
    05:00 +24°C° 0 mm 3 mps 725 mmHg 86%
    06:00 +24°C° 0 mm 3 mps 726 mmHg 87%
    07:00 +26°C° 0 mm 3 mps 726 mmHg 79%
    08:00 +28°C° 0 mm 3 mps 727 mmHg 71%
    09:00 +29°C° 0 mm 3 mps 727 mmHg 63%
    10:00 +33°C° 0 mm 3 mps 727 mmHg 52%
    11:00 +36°C° 0 mm 3 mps 727 mmHg 41%
    12:00 +38°C° 0 mm 3 mps 726 mmHg 31%
    13:00 +39°C° 0 mm 3 mps 726 mmHg 28%
    14:00 +39°C° 0 mm 3 mps 725 mmHg 26%
    15:00 +40°C° 0 mm 3 mps 724 mmHg 23%
    16:00 +38°C° 0 mm 3 mps 724 mmHg 26%
    17:00 +37°C° 0 mm 3 mps 724 mmHg 29%
    18:00 +35°C° 0 mm 2 mps 725 mmHg 32%
    19:00 +33°C° 0 mm 3 mps 725 mmHg 41%
    20:00 +30°C° 0 mm 3 mps 725 mmHg 51%
    21:00 +28°C° 0 mm 4 mps 726 mmHg 60%
    22:00 +27°C° 0 mm 3 mps 726 mmHg 64%
    23:00 +26°C° 0 mm 3 mps 726 mmHg 67%

    19 November, Tuesday

    Time Temperature Precipitation Wind Pressure Humidity
    00:00 +25°C° 0 mm 2 mps 726 mmHg 70%
    01:00 +25°C° 0 mm 2 mps 726 mmHg 74%
    02:00 +25°C° 0 mm 3 mps 726 mmHg 77%
    03:00 +24°C° 0 mm 3 mps 726 mmHg 80%
    04:00 +24°C° 0 mm 2 mps 726 mmHg 82%
    05:00 +24°C° 0 mm 2 mps 727 mmHg 83%
    06:00 +25°C° 0 mm 2 mps 727 mmHg 85%
    07:00 +26°C° 0 mm 2 mps 728 mmHg 75%
    08:00 +28°C° 0 mm 2 mps 728 mmHg 66%
    09:00 +30°C° 0 mm 3 mps 728 mmHg 56%
    10:00 +34°C° 0 mm 3 mps 728 mmHg 47%
    11:00 +36°C° 0 mm 3 mps 727 mmHg 38%
    12:00 +39°C° 0 mm 3 mps 727 mmHg 29%
    13:00 +39°C° 0 mm 3 mps 726 mmHg 27%
    14:00 +40°C° 0 mm 3 mps 725 mmHg 25%
    15:00 +40°C° 0 mm 3 mps 724 mmHg 23%
    16:00 +38°C° 0 mm 2 mps 725 mmHg 26%
    17:00 +37°C° 0 mm 2 mps 725 mmHg 28%
    18:00 +35°C° 0 mm 2 mps 725 mmHg 31%
    19:00 +32°C° 0.1 mm 2 mps 726 mmHg 43%
    20:00 +30°C° 0.1 mm 3 mps 726 mmHg 56%
    21:00 +28°C° 0.1 mm 3 mps 727 mmHg 69%
    22:00 +27°C° 0 mm 3 mps 727 mmHg 71%
    23:00 +26°C° 0 mm 2 mps 727 mmHg 74%
    Show more